[[{"header":{"parameterUnit":"m.s-1","parameterCategory":1,"la1":30.2991,"la2":30.254,"lo1":-89.0895,"lo2":-89.0444,"dy":0.0017,"dx":0.0017,"nx":28,"ny":28,"refTime":"2023-09-28T21:00:00:Z","depth":0,"parameterNumber":2,"parameterNumberName":"U-component_of_WINDS"},"data":[0,0,0,0,0,0,0,0,0,0,0,0,0,0,0,0,0,0,0,0,0,0,0,0,0,0,0,0,0,0,0,0,0,0,0,0,0,0,0,0,0,0,0,0,0,0,0,0,0,0,0,0,0,0,0,0,0,0,-5.5387,-5.5387,0,-5.534,-5.5339,-5.5339,-5.5166,-5.5162,-5.5158,-5.5154,-5.5108,-5.5111,-5.5113,0,0,0,0,0,0,0,0,0,0,0,0,0,-5.5331,-5.5333,-5.5387,-5.5387,-5.5386,-5.534,-5.5339,-5.5339,-5.5166,-5.5162,-5.5157,-5.5152,-5.5107,-5.511,-5.5113,0,0,0,0,0,0,0,0,0,0,0,0,0,-5.5327,-5.5334,-5.5387,-5.5295,-5.5286,-5.534,-5.5339,-5.5339,-5.5167,-5.5162,-5.5156,-5.515,-5.5106,-5.511,-5.5114,-5.5255,0,0,-5.5125,-5.5127,0,0,0,0,0,0,0,0,-5.5328,-5.533,-5.5309,-5.5301,-5.5291,-5.5253,-5.5303,-5.5311,-5.5169,-5.5213,-5.5154,-5.5147,-5.5161,-5.516,-5.5164,-5.5253,-5.5251,-5.5125,-5.5127,-5.5129,-5.513,0,0,0,0,0,0,0,-5.5328,-5.5331,-5.5369,-5.5309,-5.5298,-5.5256,-5.5249,-5.5303,-5.5221,-5.5208,-5.5196,-5.5192,-5.5155,-5.5161,-5.5162,-5.525,-5.5125,-5.5128,-5.5131,-5.5132,-5.5453,-5.5459,0,0,0,0,0,0,-5.5341,-5.5332,-5.537,-5.5367,-5.5295,-5.5262,-5.5254,-5.5271,-5.522,-5.5206,-5.5197,-5.5184,-5.5158,-5.5158,-5.516,-5.5323,-5.5129,-5.5132,-5.5135,-5.5447,-5.5455,-5.5462,0,0,0,0,0,0,-5.5341,-5.5346,-5.5372,-5.5346,-5.5346,-5.5269,-5.529,-5.5273,-5.5279,-5.5211,-5.5196,-5.5218,-5.5153,-5.5154,-5.5233,-5.5319,-5.5134,-5.5137,-5.544,-5.545,-5.5458,-5.565,0,0,0,0,0,0,-5.534,-5.5347,-5.5399,-5.5349,-5.5348,-5.5446,-5.5295,-5.5277,-5.5285,-5.5268,-5.5227,-5.5214,-5.5149,-5.5228,-5.5236,-5.532,-5.514,-5.5432,-5.5444,-5.5455,-5.5636,-5.5665,-5.569,0,0,0,0,0,-5.5339,-5.5455,-5.5403,-5.5409,-5.5412,-5.5451,-5.5451,-5.5372,-5.5293,-5.5345,-5.5302,-5.5216,-5.5308,-5.5238,-5.5245,-5.5332,-5.5426,-5.5441,-5.5454,-5.5623,-5.5659,-5.5689,0,0,0,0,0,0,-5.5519,-5.5447,-5.5388,-5.5492,-5.5479,-5.5421,-5.5485,-5.5412,-5.5421,-5.5405,-5.5307,-5.5299,-5.5392,-5.5369,-5.5292,-5.5467,-5.5352,-5.5369,-5.5478,-5.5512,-5.5538,-5.5543,-5.5143,0,0,0,0,0,-5.5571,-5.5608,-5.5543,-5.5641,-5.5637,-5.5563,-5.5577,-5.5517,-5.55,-5.5494,-5.5456,-5.5444,-5.547,-5.5489,-5.5509,-5.5631,-5.5621,-5.5694,-5.5722,-5.5744,-5.576,-5.5825,-5.5858,-5.5508,-5.5508,-5.5508,0,0,-5.5678,-5.5643,-5.5673,-5.5676,-5.5659,-5.5701,-5.5559,-5.5609,-5.5639,-5.5501,-5.5573,-5.5546,-5.5525,-5.5627,-5.5669,-5.561,-5.5854,-5.5762,-5.5781,-5.5784,-5.5843,-5.5876,-5.5906,-5.5518,-5.5516,-5.5515,0,0,-5.5896,-5.5872,-5.5952,-5.5938,-5.5913,-5.5863,-5.5883,-5.5837,-5.5813,-5.5883,-5.5782,-5.5817,-5.5863,-5.5853,-5.5854,-5.607,-5.5992,-5.6079,-5.6221,-5.6286,-5.6313,-5.6337,-5.6416,-5.6445,-5.6095,-5.6095,-5.6096,0,-5.6033,-5.609,-5.6002,-5.6059,-5.6065,-5.5941,-5.6022,-5.6013,-5.5997,-5.6004,-5.5938,-5.5995,-5.5972,-5.607,-5.6123,-5.6127,-5.6148,-5.6084,-5.6316,-5.6339,-5.636,-5.6435,-5.6464,-5.6106,-5.6105,-5.6104,-5.6103,0,-5.6261,-5.6303,-5.637,-5.6358,-5.6371,-5.644,-5.6363,-5.6387,-5.6326,-5.6284,-5.6358,-5.6327,-5.6339,-5.6357,-5.6299,-5.6448,-5.6413,-5.6333,-5.6217,-5.6406,-5.6474,-5.6502,-5.6122,-5.6118,-5.6115,-5.6112,0,0,-5.6591,-5.653,-5.6556,-5.655,-5.6514,-5.6546,-5.661,-5.6621,-5.6644,-5.6637,-5.669,-5.6732,-5.6659,-5.666,-5.66,-5.6656,-5.6831,-5.6569,-5.6567,-5.6621,-5.6997,-5.7059,-5.7093,-5.6778,-5.6783,-5.6787,-5.6999,0,-5.68,-5.6905,-5.6828,-5.6947,-5.6985,-5.6869,-5.6925,-5.691,-5.6872,-5.69,-5.6858,-5.6891,-5.679,-5.679,-5.6841,-5.68,-5.6906,-5.6783,-5.6828,-5.6831,-5.6839,-5.7128,-5.7193,-5.7394,-5.7025,-5.7029,-5.7032,0,-5.7057,-5.7062,-5.7185,-5.7143,-5.7156,-5.7208,-5.7213,-5.7241,-5.7222,-5.7191,-5.7194,-5.7118,-5.7179,-5.7064,-5.7148,-5.7066,-5.708,-5.7063,-5.7069,-5.7071,-5.6945,-5.7141,-5.7456,-5.7488,-5.7073,-5.707,-5.7067,0,-5.7288,-5.7326,-5.7404,-5.7402,-5.7354,-5.7394,-5.7376,-5.7351,-5.7364,-5.7368,-5.7376,-5.7388,-5.7396,-5.7408,-5.7339,-5.7261,-5.7433,-5.7311,-5.741,-5.7412,-5.7453,-5.7452,-5.7778,-5.7459,-5.7459,-5.7458,-5.7457,0,-5.753,-5.7611,-5.7508,-5.7557,-5.7644,-5.7555,-5.7644,-5.7614,-5.7593,-5.7635,-5.7534,-5.7576,-5.7481,-5.7514,-5.746,-5.7539,-5.7542,-5.752,-5.7506,-5.7531,-5.7534,-5.754,-5.7525,-5.7466,-5.7464,-5.7463,-5.7461,0,-5.7804,-5.7738,-5.7816,-5.7765,-5.7754,-5.7821,-5.7777,-5.7821,-5.7776,-5.7831,-5.7838,-5.7769,-5.7802,-5.7734,-5.7758,-5.7721,-5.7834,-5.7796,-5.7841,-5.783,-5.7934,-5.7926,-5.8277,-5.8319,-5.7972,-5.7976,-5.7979,0,-5.7964,-5.8023,-5.7978,-5.7999,-5.7986,-5.8021,-5.8033,-5.7948,-5.7965,-5.7949,-5.7996,-5.802,-5.8035,-5.8094,-5.8047,-5.8065,-5.8028,-5.8149,-5.803,-5.8054,-5.8033,-5.8031,-5.8037,-5.8175,-5.8179,-5.8183,-5.8185,0,-5.8255,-5.822,-5.8241,-5.8252,-5.8269,-5.8274,-5.8271,-5.8294,-5.8203,-5.8228,-5.826,-5.8273,-5.8297,-5.8324,-5.8331,-5.8313,-5.8236,-5.8223,-5.8247,-5.8275,-5.8299,-5.829,-5.791,-5.8216,-5.8213,-5.8211,-5.8209,-5.8208,-5.8478,-5.8526,-5.8502,-5.8529,-5.8518,-5.8519,-5.8558,-5.8518,-5.8543,-5.8556,-5.8505,-5.855,-5.8531,-5.8532,-5.8523,-5.8558,-5.8504,-5.8538,-5.8547,-5.8558,-5.8576,-5.8292,-5.8559,-5.8558,-5.8557,-5.8556,-5.8555,0,-5.8766,-5.8745,-5.8771,-5.877,-5.8793,-5.8716,-5.871,-5.8734,-5.8774,-5.8763,-5.878,-5.8819,-5.8844,-5.8799,-5.8818,-5.8854,-5.882,-5.8862,-5.886,-5.8858,-5.8622,-5.8601,-5.889,-5.889,-5.889,-5.889,-5.889,-5.889,-5.8918,-5.8996,-5.8958,-5.903,-5.9008,-5.9051,-5.9054,-5.9055,-5.9045,-5.9093,-5.9113,-5.9083,-5.9059,-5.9075,-5.9096,-5.9082,-5.9094,-5.9151,-5.9125,-5.8907,-5.8874,-5.8843,-5.8822,-5.9153,-5.9154,-5.9357,-5.9359,-5.9361]},{"header":{"parameterUnit":"m.s-1","parameterCategory":1,"la1":30.2991,"la2":30.254,"lo1":-89.0895,"lo2":-89.0444,"dy":0.0017,"dx":0.0017,"nx":28,"ny":28,"refTime":"2023-09-28T21:00:00:Z","depth":0,"parameterNumber":3,"parameterNumberName":"V-component_of_WINDS"},"data":[0,0,0,0,0,0,0,0,0,0,0,0,0,0,0,0,0,0,0,0,0,0,0,0,0,0,0,0,0,0,0,0,0,0,0,0,0,0,0,0,0,0,0,0,0,0,0,0,0,0,0,0,0,0,0,0,0,0,-1.5235,-1.5236,0,-1.538,-1.5381,-1.5383,-1.5363,-1.5361,-1.5358,-1.5356,-1.551,-1.5516,-1.5522,0,0,0,0,0,0,0,0,0,0,0,0,0,-1.4943,-1.4948,-1.5234,-1.5236,-1.5238,-1.5379,-1.5381,-1.5383,-1.5364,-1.5361,-1.5358,-1.5355,-1.5508,-1.5515,-1.5523,0,0,0,0,0,0,0,0,0,0,0,0,0,-1.5077,-1.495,-1.5234,-1.5245,-1.5248,-1.5379,-1.5381,-1.5384,-1.5364,-1.5361,-1.5357,-1.5354,-1.5505,-1.5514,-1.5524,-1.5655,0,0,-1.5553,-1.5557,0,0,0,0,0,0,0,0,-1.5069,-1.5088,-1.5242,-1.5245,-1.5248,-1.535,-1.5335,-1.5475,-1.5365,-1.532,-1.5356,-1.5352,-1.546,-1.5473,-1.5508,-1.5662,-1.5669,-1.5554,-1.5559,-1.5563,-1.5566,0,0,0,0,0,0,0,-1.506,-1.5081,-1.5292,-1.5244,-1.5248,-1.5244,-1.5259,-1.5361,-1.5409,-1.5324,-1.5323,-1.534,-1.5461,-1.5499,-1.5511,-1.5671,-1.5553,-1.5562,-1.5568,-1.5571,-1.594,-1.5944,0,0,0,0,0,0,-1.5047,-1.5074,-1.5287,-1.5296,-1.5148,-1.5252,-1.5269,-1.5321,-1.5407,-1.5417,-1.5343,-1.5338,-1.5484,-1.55,-1.5517,-1.5677,-1.5563,-1.5572,-1.5578,-1.5936,-1.5941,-1.5945,0,0,0,0,0,0,-1.5041,-1.5067,-1.5281,-1.5185,-1.5212,-1.5261,-1.5319,-1.5325,-1.5364,-1.5422,-1.543,-1.5373,-1.5482,-1.5503,-1.562,-1.5682,-1.5577,-1.5585,-1.5931,-1.5938,-1.5943,-1.5999,0,0,0,0,0,0,-1.5033,-1.5065,-1.5115,-1.5186,-1.5217,-1.5382,-1.5323,-1.5331,-1.538,-1.5375,-1.5453,-1.5462,-1.5481,-1.5606,-1.563,-1.5694,-1.5593,-1.5926,-1.5934,-1.5941,-1.5992,-1.6006,-1.6018,0,0,0,0,0,-1.5023,-1.5125,-1.5117,-1.5143,-1.528,-1.5386,-1.5404,-1.5422,-1.5385,-1.5436,-1.5473,-1.5459,-1.5671,-1.5618,-1.5645,-1.5712,-1.5922,-1.5932,-1.5941,-1.5986,-1.6003,-1.6018,0,0,0,0,0,0,-1.5062,-1.5135,-1.5127,-1.5255,-1.5314,-1.5382,-1.5448,-1.544,-1.5512,-1.5505,-1.5526,-1.5544,-1.5663,-1.5698,-1.5639,-1.5844,-1.5791,-1.5806,-1.5817,-1.5834,-1.5847,-1.5838,-1.56,0,0,0,0,0,-1.5085,-1.5164,-1.5223,-1.5331,-1.5361,-1.5399,-1.5446,-1.5454,-1.5517,-1.5542,-1.5588,-1.565,-1.5731,-1.5784,-1.5861,-1.5995,-1.6013,-1.6054,-1.6068,-1.6078,-1.6092,-1.6167,-1.6187,-1.5976,-1.5976,-1.5975,0,0,-1.5135,-1.5184,-1.5233,-1.534,-1.5387,-1.5469,-1.542,-1.5509,-1.5571,-1.5556,-1.567,-1.5705,-1.5776,-1.5902,-1.596,-1.5936,-1.6154,-1.609,-1.6098,-1.6107,-1.6179,-1.6199,-1.6216,-1.5982,-1.5981,-1.598,0,0,-1.5269,-1.5313,-1.5408,-1.5455,-1.5525,-1.5549,-1.5572,-1.5641,-1.5663,-1.5776,-1.5767,-1.5841,-1.5978,-1.603,-1.6074,-1.6223,-1.6215,-1.6247,-1.6319,-1.6391,-1.6408,-1.6423,-1.6479,-1.6498,-1.626,-1.626,-1.626,0,-1.5323,-1.5445,-1.5458,-1.5548,-1.5596,-1.5583,-1.5681,-1.5726,-1.5819,-1.5853,-1.5823,-1.5995,-1.6042,-1.6181,-1.6217,-1.6252,-1.628,-1.6241,-1.6404,-1.6419,-1.6434,-1.6487,-1.6508,-1.6264,-1.6264,-1.6263,-1.6263,0,-1.5508,-1.5593,-1.5661,-1.5749,-1.5804,-1.5898,-1.5926,-1.598,-1.5983,-1.601,-1.6126,-1.6181,-1.6269,-1.6302,-1.6306,-1.6442,-1.6424,-1.6399,-1.6348,-1.6457,-1.6508,-1.6528,-1.627,-1.6268,-1.6267,-1.6266,0,0,-1.5675,-1.5767,-1.5792,-1.5832,-1.5907,-1.5974,-1.6066,-1.615,-1.6197,-1.626,-1.634,-1.6455,-1.6431,-1.6481,-1.6491,-1.6554,-1.6671,-1.6521,-1.6523,-1.655,-1.6826,-1.6847,-1.687,-1.6663,-1.6667,-1.667,-1.6821,0,-1.5818,-1.5981,-1.5994,-1.6141,-1.622,-1.6207,-1.6288,-1.6343,-1.637,-1.6442,-1.6472,-1.6554,-1.6516,-1.6546,-1.6608,-1.6644,-1.6727,-1.6633,-1.674,-1.6744,-1.6727,-1.6896,-1.6919,-1.7058,-1.684,-1.6843,-1.6846,0,-1.6008,-1.6075,-1.6229,-1.6293,-1.6327,-1.6399,-1.6477,-1.6544,-1.6607,-1.6622,-1.6676,-1.6676,-1.6772,-1.6713,-1.6847,-1.6782,-1.6826,-1.685,-1.6855,-1.687,-1.6804,-1.6918,-1.7103,-1.7125,-1.6877,-1.6874,-1.6872,0,-1.6118,-1.6246,-1.6356,-1.6389,-1.6466,-1.6517,-1.6551,-1.6609,-1.6659,-1.6727,-1.676,-1.6838,-1.6882,-1.6943,-1.6965,-1.692,-1.7098,-1.7041,-1.7116,-1.7115,-1.7157,-1.7155,-1.7356,-1.718,-1.7179,-1.7179,-1.7178,0,-1.6279,-1.6374,-1.6406,-1.6474,-1.658,-1.6594,-1.6699,-1.6731,-1.6782,-1.6856,-1.6849,-1.6919,-1.6942,-1.7016,-1.7033,-1.7141,-1.7161,-1.7177,-1.7182,-1.718,-1.7179,-1.7212,-1.7205,-1.7184,-1.7183,-1.7182,-1.7181,0,-1.6422,-1.6446,-1.6565,-1.6625,-1.6643,-1.6719,-1.6772,-1.6837,-1.6861,-1.6955,-1.6978,-1.7017,-1.7103,-1.713,-1.7234,-1.7246,-1.7374,-1.7367,-1.7353,-1.7354,-1.7429,-1.7422,-1.7661,-1.7694,-1.7493,-1.7495,-1.7496,0,-1.6525,-1.6598,-1.6666,-1.6714,-1.675,-1.6828,-1.6878,-1.6893,-1.6946,-1.7021,-1.7077,-1.7162,-1.7231,-1.737,-1.7409,-1.7488,-1.7486,-1.7564,-1.7499,-1.7495,-1.7491,-1.7488,-1.7496,-1.7578,-1.758,-1.7582,-1.7583,0,-1.6706,-1.6714,-1.6785,-1.6861,-1.692,-1.6981,-1.704,-1.708,-1.7103,-1.7163,-1.725,-1.7303,-1.7409,-1.7494,-1.7574,-1.761,-1.7602,-1.7602,-1.7625,-1.7626,-1.7616,-1.7625,-1.739,-1.7598,-1.7597,-1.7596,-1.7595,-1.7594,-1.6834,-1.6899,-1.6956,-1.7036,-1.7081,-1.7135,-1.72,-1.723,-1.7303,-1.739,-1.7393,-1.7489,-1.7548,-1.7655,-1.7695,-1.777,-1.7748,-1.7779,-1.7788,-1.7796,-1.7804,-1.76,-1.7784,-1.7784,-1.7784,-1.7783,-1.7783,0,-1.7018,-1.7053,-1.7126,-1.7207,-1.727,-1.7252,-1.7315,-1.737,-1.7453,-1.7508,-1.7575,-1.7676,-1.7757,-1.7801,-1.7882,-1.7934,-1.7932,-1.7955,-1.7954,-1.7963,-1.7818,-1.7792,-1.7956,-1.7956,-1.7956,-1.7956,-1.7956,-1.7955,-1.7121,-1.7229,-1.7243,-1.7374,-1.7409,-1.7501,-1.7539,-1.7589,-1.7633,-1.7745,-1.7812,-1.7838,-1.7889,-1.7974,-1.8048,-1.8059,-1.8091,-1.8117,-1.8125,-1.799,-1.7973,-1.7956,-1.7932,-1.8123,-1.8123,-1.8265,-1.8266,-1.8267]}]]